Time,TemperatureF,DewpointF,PressureIn,WindDirection,WindDirectionDegrees,WindSpeedMPH,WindSpeedGustMPH,Humidity,HourlyPrecipIn,Conditions,Clouds,dailyrainin,SoftwareType,DateUTC
2013-02-07 00:00:00,55.0,54.0,30.18,NE,50,7.0,8.0,94,-99.99,,,-99.99,,2013-02-07 05:00:00,
2013-02-07 00:21:00,55.0,54.0,30.18,NE,50,7.0,8.0,94,-99.99,,,-99.99,,2013-02-07 05:21:00,
2013-02-07 00:31:00,55.0,54.0,30.18,NE,50,7.0,8.0,94,-99.99,,,-99.99,,2013-02-07 05:31:00,
2013-02-07 00:42:00,55.0,54.0,30.18,NE,50,7.0,8.0,94,-99.99,,,-99.99,,2013-02-07 05:42:00,
2013-02-07 00:52:00,55.0,54.0,30.18,NE,50,7.0,8.0,94,-99.99,,,-99.99,,2013-02-07 05:52:00,
2013-02-07 01:00:00,55.0,54.0,30.18,NE,50,8.0,8.0,96,-99.99,,,-99.99,,2013-02-07 06:00:00,
2013-02-07 01:22:00,55.0,54.0,30.18,NE,50,8.0,8.0,96,-99.99,,,-99.99,,2013-02-07 06:22:00,
2013-02-07 01:31:00,55.0,54.0,30.18,NE,50,8.0,8.0,96,-99.99,,,-99.99,,2013-02-07 06:31:00,
2013-02-07 01:42:00,55.0,54.0,30.18,NE,50,8.0,8.0,96,-99.99,,,-99.99,,2013-02-07 06:42:00,
2013-02-07 01:52:00,55.0,54.0,30.18,NE,50,8.0,8.0,96,-99.99,,,-99.99,,2013-02-07 06:52:00,
2013-02-07 02:00:00,55.0,54.0,30.17,NE,40,9.0,10.0,97,-99.99,,,-99.99,,2013-02-07 07:00:00,
2013-02-07 02:21:00,55.0,54.0,30.17,NE,40,9.0,10.0,97,-99.99,,,-99.99,,2013-02-07 07:21:00,
2013-02-07 02:31:00,55.0,54.0,30.17,NE,40,9.0,10.0,97,-99.99,,,-99.99,,2013-02-07 07:31:00,
2013-02-07 02:41:00,55.0,54.0,30.17,NE,40,9.0,10.0,97,-99.99,,,-99.99,,2013-02-07 07:41:00,
2013-02-07 02:52:00,55.0,54.0,30.17,NE,40,9.0,10.0,97,-99.99,,,-99.99,,2013-02-07 07:52:00,
2013-02-07 03:00:00,55.0,54.0,30.16,NE,40,11.0,13.0,98,-99.99,,,-99.99,,2013-02-07 08:00:00,
2013-02-07 03:21:00,55.0,54.0,30.16,NE,40,11.0,13.0,98,-99.99,,,-99.99,,2013-02-07 08:21:00,
2013-02-07 03:31:00,55.0,54.0,30.16,NE,40,11.0,13.0,98,-99.99,,,-99.99,,2013-02-07 08:31:00,
2013-02-07 03:41:00,55.0,54.0,30.16,NE,40,11.0,13.0,98,-99.99,,,-99.99,,2013-02-07 08:41:00,
2013-02-07 03:52:00,55.0,54.0,30.16,NE,40,11.0,13.0,98,-99.99,,,-99.99,,2013-02-07 08:52:00,
2013-02-07 04:00:00,56.0,54.0,30.16,NE,40,9.0,10.0,94,-99.99,,,-99.99,,2013-02-07 09:00:00,
2013-02-07 04:21:00,56.0,54.0,30.16,NE,40,9.0,10.0,94,-99.99,,,-99.99,,2013-02-07 09:21:00,
2013-02-07 04:31:00,56.0,54.0,30.16,NE,40,9.0,10.0,94,-99.99,,,-99.99,,2013-02-07 09:31:00,
2013-02-07 04:41:00,56.0,54.0,30.16,NE,40,9.0,10.0,94,-99.99,,,-99.99,,2013-02-07 09:41:00,
2013-02-07 04:51:00,56.0,54.0,30.16,NE,40,9.0,10.0,94,-99.99,,,-99.99,,2013-02-07 09:51:00,
2013-02-07 05:00:00,56.0,55.0,30.15,NE,50,14.0,16.0,95,-99.99,,,-99.99,,2013-02-07 10:00:00,
2013-02-07 05:21:00,56.0,55.0,30.15,NE,50,14.0,16.0,95,-99.99,,,-99.99,,2013-02-07 10:21:00,
2013-02-07 05:31:00,56.0,55.0,30.15,NE,50,14.0,16.0,95,-99.99,,,-99.99,,2013-02-07 10:31:00,
2013-02-07 05:41:00,56.0,55.0,30.15,NE,50,14.0,16.0,95,-99.99,,,-99.99,,2013-02-07 10:41:00,
2013-02-07 05:51:00,56.0,55.0,30.15,NE,50,14.0,16.0,95,-99.99,,,-99.99,,2013-02-07 10:51:00,
2013-02-07 06:00:00,56.0,55.0,30.16,NE,40,16.0,17.0,96,-99.99,,,-99.99,,2013-02-07 11:00:00,
2013-02-07 06:22:00,56.0,55.0,30.16,NE,40,16.0,17.0,96,-99.99,,,-99.99,,2013-02-07 11:22:00,
2013-02-07 06:32:00,56.0,55.0,30.16,NE,40,16.0,17.0,96,-99.99,,,-99.99,,2013-02-07 11:32:00,
2013-02-07 06:43:00,56.0,55.0,30.16,NE,40,16.0,17.0,96,-99.99,,,-99.99,,2013-02-07 11:43:00,
2013-02-07 06:52:00,56.0,55.0,30.16,NE,40,16.0,17.0,96,-99.99,,,-99.99,,2013-02-07 11:52:00,
2013-02-07 07:00:00,55.0,54.0,30.17,NE,40,17.0,21.0,95,-99.99,,,-99.99,,2013-02-07 12:00:00,
2013-02-07 07:21:00,55.0,54.0,30.17,NE,40,17.0,21.0,95,-99.99,,,-99.99,,2013-02-07 12:21:00,
2013-02-07 07:32:00,55.0,54.0,30.17,NE,40,17.0,21.0,95,-99.99,,,-99.99,,2013-02-07 12:32:00,
2013-02-07 07:41:00,55.0,54.0,30.17,NE,40,17.0,21.0,95,-99.99,,,-99.99,,2013-02-07 12:41:00,
2013-02-07 07:52:00,55.0,54.0,30.17,NE,40,17.0,21.0,95,-99.99,,,-99.99,,2013-02-07 12:52:00,
2013-02-07 08:00:00,55.0,54.0,30.15,NE,40,20.0,23.0,97,-99.99,,,-99.99,,2013-02-07 13:00:00,
2013-02-07 08:31:00,55.0,54.0,30.15,NE,40,20.0,23.0,97,-99.99,,,-99.99,,2013-02-07 13:31:00,
2013-02-07 08:41:00,55.0,54.0,30.15,NE,40,20.0,23.0,97,-99.99,,,-99.99,,2013-02-07 13:41:00,
2013-02-07 08:51:00,55.0,54.0,30.15,NE,40,20.0,23.0,97,-99.99,,,-99.99,,2013-02-07 13:51:00,
2013-02-07 09:00:00,55.0,54.0,30.16,NE,50,20.0,23.0,97,-99.99,,,-99.99,,2013-02-07 14:00:00,
2013-02-07 09:21:00,55.0,54.0,30.16,NE,50,20.0,23.0,97,-99.99,,,-99.99,,2013-02-07 14:21:00,
2013-02-07 09:31:00,55.0,54.0,30.16,NE,50,20.0,23.0,97,-99.99,,,-99.99,,2013-02-07 14:31:00,
2013-02-07 09:41:00,55.0,54.0,30.16,NE,50,20.0,23.0,97,-99.99,,,-99.99,,2013-02-07 14:41:00,
2013-02-07 09:52:00,55.0,54.0,30.16,NE,50,20.0,23.0,97,-99.99,,,-99.99,,2013-02-07 14:52:00,
2013-02-07 10:00:00,55.0,54.0,30.15,NE,50,20.0,23.0,97,-99.99,,,-99.99,,2013-02-07 15:00:00,
2013-02-07 10:21:00,55.0,54.0,30.15,NE,50,20.0,23.0,97,-99.99,,,-99.99,,2013-02-07 15:21:00,
2013-02-07 10:31:00,55.0,54.0,30.15,NE,50,20.0,23.0,97,-99.99,,,-99.99,,2013-02-07 15:31:00,
2013-02-07 10:41:00,55.0,54.0,30.15,NE,50,20.0,23.0,97,-99.99,,,-99.99,,2013-02-07 15:41:00,
2013-02-07 10:52:00,55.0,54.0,30.15,NE,50,20.0,23.0,97,-99.99,,,-99.99,,2013-02-07 15:52:00,
2013-02-07 11:00:00,55.0,55.0,30.13,ENE,60,20.0,23.0,98,-99.99,,,-99.99,,2013-02-07 16:00:00,
2013-02-07 11:21:00,55.0,55.0,30.13,ENE,60,20.0,23.0,98,-99.99,,,-99.99,,2013-02-07 16:21:00,
2013-02-07 11:31:00,55.0,55.0,30.13,ENE,60,20.0,23.0,98,-99.99,,,-99.99,,2013-02-07 16:31:00,
2013-02-07 11:41:00,55.0,55.0,30.13,ENE,60,20.0,23.0,98,-99.99,,,-99.99,,2013-02-07 16:41:00,
2013-02-07 11:52:00,55.0,55.0,30.13,ENE,60,20.0,23.0,98,-99.99,,,-99.99,,2013-02-07 16:52:00,
2013-02-07 12:00:00,56.0,55.0,30.09,NE,50,18.0,22.0,99,-99.99,,,-99.99,,2013-02-07 17:00:00,
2013-02-07 12:21:00,56.0,55.0,30.09,NE,50,18.0,22.0,99,-99.99,,,-99.99,,2013-02-07 17:21:00,
2013-02-07 12:31:00,56.0,55.0,30.09,NE,50,18.0,22.0,99,-99.99,,,-99.99,,2013-02-07 17:31:00,
2013-02-07 12:41:00,56.0,55.0,30.09,NE,50,18.0,22.0,99,-99.99,,,-99.99,,2013-02-07 17:41:00,
2013-02-07 12:52:00,56.0,55.0,30.09,NE,50,18.0,22.0,99,-99.99,,,-99.99,,2013-02-07 17:52:00,
2013-02-07 13:00:00,55.0,55.0,30.07,NE,40,18.0,22.0,99,-99.99,,,-99.99,,2013-02-07 18:00:00,
2013-02-07 13:22:00,55.0,55.0,30.07,NE,40,18.0,22.0,99,-99.99,,,-99.99,,2013-02-07 18:22:00,
2013-02-07 13:31:00,55.0,55.0,30.07,NE,40,18.0,22.0,99,-99.99,,,-99.99,,2013-02-07 18:31:00,
2013-02-07 13:41:00,55.0,55.0,30.07,NE,40,18.0,22.0,99,-99.99,,,-99.99,,2013-02-07 18:41:00,
2013-02-07 13:51:00,55.0,55.0,30.07,NE,40,18.0,22.0,99,-99.99,,,-99.99,,2013-02-07 18:51:00,
2013-02-07 14:00:00,55.0,55.0,30.03,NE,40,28.0,31.0,100,-99.99,,,-99.99,,2013-02-07 19:00:00,
2013-02-07 14:21:00,55.0,55.0,30.03,NE,40,28.0,31.0,100,-99.99,,,-99.99,,2013-02-07 19:21:00,
2013-02-07 14:31:00,55.0,55.0,30.03,NE,40,28.0,31.0,100,-99.99,,,-99.99,,2013-02-07 19:31:00,
2013-02-07 14:41:00,55.0,55.0,30.03,NE,40,28.0,31.0,100,-99.99,,,-99.99,,2013-02-07 19:41:00,
2013-02-07 14:51:00,55.0,55.0,30.03,NE,40,28.0,31.0,100,-99.99,,,-99.99,,2013-02-07 19:51:00,
2013-02-07 15:00:00,55.0,55.0,30.01,NE,40,18.0,22.0,100,-99.99,,,-99.99,,2013-02-07 20:00:00,
2013-02-07 15:21:00,55.0,55.0,30.01,NE,40,18.0,22.0,100,-99.99,,,-99.99,,2013-02-07 20:21:00,
2013-02-07 15:31:00,55.0,55.0,30.01,NE,40,18.0,22.0,100,-99.99,,,-99.99,,2013-02-07 20:31:00,
2013-02-07 15:41:00,55.0,55.0,30.01,NE,40,18.0,22.0,100,-99.99,,,-99.99,,2013-02-07 20:41:00,
2013-02-07 15:52:00,55.0,55.0,30.01,NE,40,18.0,22.0,100,-99.99,,,-99.99,,2013-02-07 20:52:00,
2013-02-07 16:00:00,54.0,54.0,29.99,NE,40,20.0,22.0,99,-99.99,,,-99.99,,2013-02-07 21:00:00,
2013-02-07 16:21:00,54.0,54.0,29.99,NE,40,20.0,22.0,99,-99.99,,,-99.99,,2013-02-07 21:21:00,
2013-02-07 16:31:00,54.0,54.0,29.99,NE,40,20.0,22.0,99,-99.99,,,-99.99,,2013-02-07 21:31:00,
2013-02-07 16:41:00,54.0,54.0,29.99,NE,40,20.0,22.0,99,-99.99,,,-99.99,,2013-02-07 21:41:00,
2013-02-07 16:51:00,54.0,54.0,29.99,NE,40,20.0,22.0,99,-99.99,,,-99.99,,2013-02-07 21:51:00,
2013-02-07 17:00:00,54.0,54.0,29.96,NE,50,24.0,28.0,100,-99.99,,,-99.99,,2013-02-07 22:00:00,
2013-02-07 17:21:00,54.0,54.0,29.96,NE,50,24.0,28.0,100,-99.99,,,-99.99,,2013-02-07 22:21:00,
2013-02-07 17:31:00,54.0,54.0,29.96,NE,50,24.0,28.0,100,-99.99,,,-99.99,,2013-02-07 22:31:00,
2013-02-07 17:42:00,54.0,54.0,29.96,NE,50,24.0,28.0,100,-99.99,,,-99.99,,2013-02-07 22:42:00,
2013-02-07 17:51:00,54.0,54.0,29.96,NE,50,24.0,28.0,100,-99.99,,,-99.99,,2013-02-07 22:51:00,
2013-02-07 18:00:00,55.0,54.0,29.92,NE,40,25.0,28.0,99,-99.99,,,-99.99,,2013-02-07 23:00:00,
2013-02-07 18:21:00,55.0,54.0,29.92,NE,40,25.0,28.0,99,-99.99,,,-99.99,,2013-02-07 23:21:00,
2013-02-07 18:31:00,55.0,54.0,29.92,NE,40,25.0,28.0,99,-99.99,,,-99.99,,2013-02-07 23:31:00,
2013-02-07 18:41:00,55.0,54.0,29.92,NE,40,25.0,28.0,99,-99.99,,,-99.99,,2013-02-07 23:41:00,
2013-02-07 18:52:00,55.0,54.0,29.92,NE,40,25.0,28.0,99,-99.99,,,-99.99,,2013-02-07 23:52:00,
2013-02-07 19:00:00,55.0,55.0,29.91,NE,40,20.0,24.0,100,-99.99,,,-99.99,,2013-02-08 00:00:00,
2013-02-07 19:21:00,55.0,55.0,29.91,NE,40,20.0,24.0,100,-99.99,,,-99.99,,2013-02-08 00:21:00,
2013-02-07 19:31:00,55.0,55.0,29.91,NE,40,20.0,24.0,100,-99.99,,,-99.99,,2013-02-08 00:31:00,
2013-02-07 19:41:00,55.0,55.0,29.91,NE,40,20.0,24.0,100,-99.99,,,-99.99,,2013-02-08 00:41:00,
2013-02-07 19:52:00,55.0,55.0,29.91,NE,40,20.0,24.0,100,-99.99,,,-99.99,,2013-02-08 00:52:00,
2013-02-07 20:00:00,55.0,55.0,29.85,NE,40,22.0,23.0,100,-99.99,,,-99.99,,2013-02-08 01:00:00,
2013-02-07 20:21:00,55.0,55.0,29.85,NE,40,22.0,23.0,100,-99.99,,,-99.99,,2013-02-08 01:21:00,
2013-02-07 20:31:00,55.0,55.0,29.85,NE,40,22.0,23.0,100,-99.99,,,-99.99,,2013-02-08 01:31:00,
2013-02-07 20:41:00,55.0,55.0,29.85,NE,40,22.0,23.0,100,-99.99,,,-99.99,,2013-02-08 01:41:00,
2013-02-07 20:51:00,55.0,55.0,29.85,NE,40,22.0,23.0,100,-99.99,,,-99.99,,2013-02-08 01:51:00,
2013-02-07 21:00:00,55.0,55.0,29.84,NE,40,23.0,28.0,100,-99.99,,,-99.99,,2013-02-08 02:00:00,
2013-02-07 21:21:00,55.0,55.0,29.84,NE,40,23.0,28.0,100,-99.99,,,-99.99,,2013-02-08 02:21:00,
2013-02-07 21:31:00,55.0,55.0,29.84,NE,40,23.0,28.0,100,-99.99,,,-99.99,,2013-02-08 02:31:00,
2013-02-07 21:42:00,55.0,55.0,29.84,NE,40,23.0,28.0,100,-99.99,,,-99.99,,2013-02-08 02:42:00,
2013-02-07 21:52:00,55.0,55.0,29.84,NE,40,23.0,28.0,100,-99.99,,,-99.99,,2013-02-08 02:52:00,
2013-02-07 22:00:00,55.0,55.0,29.80,NNE,30,18.0,21.0,100,-99.99,,,-99.99,,2013-02-08 03:00:00,
2013-02-07 22:22:00,55.0,55.0,29.80,NNE,30,18.0,21.0,100,-99.99,,,-99.99,,2013-02-08 03:22:00,
2013-02-07 22:31:00,55.0,55.0,29.80,NNE,30,18.0,21.0,100,-99.99,,,-99.99,,2013-02-08 03:31:00,
2013-02-07 22:41:00,55.0,55.0,29.80,NNE,30,18.0,21.0,100,-99.99,,,-99.99,,2013-02-08 03:41:00,
2013-02-07 22:51:00,55.0,55.0,29.80,NNE,30,18.0,21.0,100,-99.99,,,-99.99,,2013-02-08 03:51:00,
2013-02-07 23:00:00,55.0,55.0,29.75,NNE,30,15.0,16.0,100,-99.99,,,-99.99,,2013-02-08 04:00:00,
2013-02-07 23:21:00,55.0,55.0,29.75,NNE,30,15.0,16.0,100,-99.99,,,-99.99,,2013-02-08 04:21:00,
2013-02-07 23:31:00,55.0,55.0,29.75,NNE,30,15.0,16.0,100,-99.99,,,-99.99,,2013-02-08 04:31:00,
2013-02-07 23:41:00,55.0,55.0,29.75,NNE,30,15.0,16.0,100,-99.99,,,-99.99,,2013-02-08 04:41:00,
2013-02-07 23:51:00,55.0,55.0,29.75,NNE,30,15.0,16.0,100,-99.99,,,-99.99,,2013-02-08 04:51:00,